DW6702 Weather Reports


time (UTC)temp
C
wind
direction
speed
KPH
gust
KPH
rain 1hr
cm
rain 24hr
cm
rain mn
cm
humidity
%
barometer
mb
20190819191336 32 171 1.6 1.6 0.00 0.00 0.00 72 1017.3
20190819190328 32 170 0.0 3.2 0.00 0.00 0.00 70 1017.2
20190819185325 33 139 1.6 12.9 0.00 0.00 0.00 67 1017.4
20190819184317 33 140 1.6 6.4 0.00 0.00 0.00 66 1017.5
20190819183330 33 160 1.6 8.0 0.00 0.00 0.00 67 1017.7
20190819182323 33 160 1.6 6.4 0.00 0.00 0.00 64 1017.9
20190819181318 33 165 1.6 8.0 0.00 0.00 0.00 65 1018.1
20190819180333 33 148 1.6 8.0 0.00 0.00 0.00 65 1018.2
20190819175325 33 165 3.2 4.8 0.00 0.00 0.00 65 1018.3
20190819174323 32 119 1.6 8.0 0.00 0.00 0.00 69 1018.4
20190819173335 32 169 3.2 6.4 0.00 0.00 0.00 67 1018.4
20190819172328 32 177 3.2 6.4 0.00 0.00 0.00 69 1018.5
20190819171319 32 170 1.6 4.8 0.00 0.00 0.00 68 1018.5
20190819170315 32 164 4.8 9.7 0.00 0.00 0.00 67 1018.7
20190819165328 33 199 6.4 14.5 0.00 0.00 0.00 66 1018.6
20190819164321 33 303 3.2 4.8 0.00 0.00 0.00 65 1018.7
20190819163317 32 136 3.2 9.7 0.00 0.00 0.00 67 1018.7
20190819162330 32 113 3.2 6.4 0.00 0.00 0.00 70 1018.8
20190819161321 32 168 4.8 9.7 0.00 0.00 0.00 69 1018.9
20190819160334 31 208 3.2 9.7 0.00 0.00 0.00 70 1018.9
20190819155331 31 223 3.2 9.7 0.00 0.00 0.00 70 1018.9
20190819154322 31 168 4.8 8.0 0.00 0.00 0.00 72 1018.9
20190819153336 31 146 3.2 6.4 0.00 0.00 0.00 73 1018.9
20190819152332 31 157 4.8 9.7 0.00 0.00 0.00 73 1018.9
20190819151324 31 146 1.6 8.0 0.00 0.00 0.00 75 1018.9
20190819150316 30 146 1.6 8.0 0.00 0.00 0.00 75 1018.8
20190819145330 30 174 3.2 8.0 0.00 0.00 0.00 76 1018.9
20190819144325 30 250 3.2 8.0 0.00 0.00 0.00 77 1018.9
20190819143317 30 136 6.4 12.9 0.00 0.00 0.00 78 1018.9
20190819142330 30 177 4.8 9.7 0.00 0.00 0.00 79 1019.0
20190819141325 30 165 3.2 9.7 0.00 0.00 0.00 81 1019.0
20190819140318 29 179 1.6 8.0 0.00 0.00 0.00 84 1019.0
20190819135330 28 156 4.8 8.0 0.00 0.00 0.00 83 1018.9
20190819134323 28 186 3.2 9.7 0.00 0.00 0.00 85 1018.9
20190819133319 28 164 3.2 8.0 0.00 0.00 0.00 86 1019.0
20190819132333 27 188 3.2 11.3 0.00 0.00 0.00 87 1019.0
20190819131325 27 145 4.8 11.3 0.00 0.00 0.00 89 1019.0
20190819130321 27 174 4.8 9.7 0.00 0.00 0.00 90 1019.1
20190819125333 26 158 3.2 9.7 0.00 0.00 0.00 92 1019.1
20190819124324 26 177 6.4 11.3 0.00 0.00 0.00 92 1019.2
20190819123316 26 155 3.2 8.0 0.00 0.00 0.00 94 1019.2
20190819122333 25 177 4.8 8.0 0.00 0.00 0.00 95 1019.0
20190819121326 25 166 3.2 8.0 0.00 0.00 0.00 96 1019.0
20190819120318 25 159 4.8 8.0 0.00 0.00 0.00 97 1019.0
20190819115333 24 151 3.2 6.4 0.00 0.00 0.00 97 1018.9
20190819114327 24 164 3.2 6.4 0.00 0.00 0.00 98 1018.9
20190819113320 24 165 3.2 4.8 0.00 0.00 0.00 99 1018.7
20190819112333 23 175 1.6 4.8 0.00 0.00 0.00 99 1018.7
20190819111328 23 161 1.6 4.8 0.00 0.00 0.00 99 1018.5
20190819110321 23 171 1.6 3.2 0.00 0.00 0.00 99 1018.4
20190819105334 23 175 1.6 3.2 0.00 0.00 0.00 99 1018.3
20190819104326 23 170 0.0 1.6 0.00 0.00 0.00 99 1018.2
20190819103323 23 170 1.6 3.2 0.00 0.00 0.00 99 1018.2
20190819102315 23 170 1.6 3.2 0.00 0.00 0.00 99 1018.0
20190819101329 23 179 3.2 4.8 0.00 0.00 0.00 99 1018.0
20190819100326 23 159 1.6 1.6 0.00 0.00 0.00 98 1017.8
20190819095316 23 158 1.6 3.2 0.00 0.00 0.00 98 1017.8
20190819094330 23 173 1.6 3.2 0.00 0.00 0.00 98 1017.7
20190819093322 23 164 3.2 4.8 0.00 0.00 0.00 98 1017.6
20190819092318 23 175 1.6 3.2 0.00 0.00 0.00 98 1017.6
20190819091332 23 176 0.0 1.6 0.00 0.00 0.00 98 1017.5
20190819090324 23 175 0.0 1.6 0.00 0.00 0.00 98 1017.4
20190819085321 23 175 0.0 0.0 0.00 0.00 0.00 97 1017.5
20190819084333 23 175 0.0 1.6 0.00 0.00 0.00 97 1017.3
20190819083326 23 175 0.0 0.0 0.00 0.00 0.00 97 1017.3
20190819082319 23 175 0.0 1.6 0.00 0.00 0.00 97 1017.1
20190819081316 23 175 0.0 3.2 0.00 0.00 0.00 96 1017.2
20190819080327 23 174 1.6 3.2 0.00 0.00 0.00 96 1017.2
20190819075320 23 154 0.0 4.8 0.00 0.00 0.00 96 1017.1
20190819074316 23 165 1.6 4.8 0.00 0.00 0.00 96 1017.3
20190819073328 23 163 1.6 3.2 0.00 0.00 0.00 96 1017.3
20190819072321 23 163 1.6 3.2 0.00 0.00 0.00 96 1017.5
20190819071333 23 163 1.6 3.2 0.00 0.00 0.00 95 1017.5
20190819070330 23 170 1.6 3.2 0.00 0.00 0.00 96 1017.4
20190819065322 24 165 0.0 3.2 0.00 0.00 0.00 95 1017.4
20190819064334 24 175 1.6 3.2 0.00 0.00 0.00 95 1017.4
20190819063331 24 178 1.6 4.8 0.00 0.00 0.00 94 1017.3
20190819062323 24 161 1.6 3.2 0.00 0.00 0.00 95 1017.3
20190819061316 24 161 0.0 1.6 0.00 0.00 0.00 94 1017.3
20190819060328 24 161 0.0 3.2 0.00 0.00 0.00 94 1017.3
20190819055324 24 155 1.6 4.8 0.00 0.00 0.00 94 1017.3
20190819054317 24 168 0.0 1.6 0.00 0.00 0.00 94 1017.2
20190819053330 24 169 0.0 4.8 0.00 0.00 0.00 93 1017.4
20190819052325 24 160 1.6 3.2 0.00 0.00 0.00 93 1017.3
20190819051318 25 160 0.0 3.2 0.00 0.00 0.00 93 1017.4
20190819050331 25 153 0.0 4.8 0.00 0.00 0.00 93 1017.4
20190819045324 25 159 1.6 3.2 0.00 0.00 0.00 93 1017.4
20190819044320 25 158 0.0 3.2 0.00 0.00 0.00 92 1017.3
20190819043334 25 158 0.0 3.2 0.00 0.00 0.00 92 1017.3
20190819042326 25 157 0.0 4.8 0.00 0.00 0.00 92 1017.4
20190819041322 25 153 0.0 3.2 0.00 0.00 0.00 92 1017.4
20190819040334 25 153 1.6 3.2 0.00 0.00 0.00 91 1017.5
20190819035326 25 166 1.6 4.8 0.00 0.00 0.00 91 1017.4
20190819034318 25 155 0.0 3.2 0.00 0.00 0.00 90 1017.4
20190819033315 25 163 1.6 4.8 0.00 0.00 0.00 90 1017.5
20190819032328 25 160 1.6 3.2 0.00 0.00 0.00 91 1017.3
20190819031316 25 164 0.0 3.2 0.00 0.00 0.00 90 1017.5
20190819030329 25 160 1.6 3.2 0.00 0.00 0.00 90 1017.5
20190819025325 25 171 3.2 4.8 0.00 0.00 0.00 90 1017.4
20190819024317 26 171 3.2 3.2 0.00 0.00 0.00 89 1017.4
20190819023331 26 170 1.6 3.2 0.00 0.00 0.00 89 1017.3
20190819022326 26 168 1.6 3.2 0.00 0.00 0.00 89 1017.3
20190819021319 26 163 0.0 1.6 0.00 0.00 0.00 89 1017.1
20190819020331 26 163 0.0 1.6 0.00 0.00 0.00 89 1017.1
20190819015323 26 163 0.0 1.6 0.00 0.00 0.00 88 1017.2
20190819014320 26 163 0.0 1.6 0.00 0.00 0.00 88 1017.1
20190819013333 26 163 0.0 1.6 0.00 0.00 0.00 88 1017.0
20190819012324 26 161 1.6 1.6 0.00 0.00 0.00 88 1016.9
20190819011321 26 161 0.0 1.6 0.00 0.00 0.00 88 1016.8
20190819010334 26 161 0.0 1.6 0.00 0.00 0.00 88 1016.7
20190819005327 26 161 0.0 1.6 0.00 0.00 0.00 87 1016.5
20190819004319 26 161 0.0 0.0 0.00 0.00 0.00 87 1016.5
20190819003316 27 161 0.0 1.6 0.00 0.00 0.00 86 1016.4
20190819002328 27 161 0.0 1.6 0.00 0.00 0.00 85 1016.2
20190819001320 27 161 0.0 0.0 0.00 0.00 0.00 84 1016.0
20190819000317 27 161 0.0 1.6 0.00 0.00 0.00 83 1016.1
20190818235330 28 161 0.0 1.6 0.00 0.00 0.00 81 1015.9
20190818234322 28 161 0.0 1.6 0.00 0.00 0.00 79 1016.0
20190818233334 28 127 0.0 0.0 0.00 0.00 0.00 78 1015.8
20190818232332 29 127 0.0 1.6 0.00 0.00 0.00 76 1015.8
20190818231323 30 116 0.0 1.6 0.00 0.00 0.00 74 1015.7
20190818230315 31 116 0.0 1.6 0.00 0.00 0.00 70 1015.7
20190818225332 32 103 0.0 1.6 0.00 0.00 0.00 64 1015.6
20190818224324 33 98 0.0 1.6 0.00 0.00 0.00 62 1015.6
20190818223318 33 99 0.0 1.6 0.00 0.00 0.00 63 1015.6
20190818222330 32 99 0.0 3.2 0.00 0.00 0.00 65 1015.9
20190818221326 32 177 1.6 4.8 0.00 0.00 0.00 63 1016.1
20190818220319 33 153 0.0 3.2 0.00 0.00 0.00 61 1016.1
20190818215332 32 140 4.8 6.4 0.00 0.00 0.00 59 1016.1
20190818214329 33 164 1.6 3.2 0.00 0.00 0.00 58 1016.1
20190818213321 33 174 0.0 6.4 0.00 0.00 0.00 57 1016.1
20190818212333 33 193 0.0 4.8 0.00 0.00 0.00 57 1016.2
20190818211325 33 160 3.2 4.8 0.00 0.00 0.00 56 1016.2
20190818210322 33 65 1.6 3.2 0.00 0.00 0.00 58 1016.3
20190818205333 33 158 1.6 4.8 0.00 0.00 0.00 58 1016.3
20190818204326 33 165 0.0 3.2 0.00 0.00 0.00 60 1016.3
20190818203324 33 111 1.6 4.8 0.00 0.00 0.00 56 1016.4
20190818202316 33 58 1.6 4.8 0.00 0.00 0.00 58 1016.5
20190818201329 32 125 1.6 8.0 0.00 0.00 0.00 62 1016.6
20190818200320 32 165 3.2 4.8 0.00 0.00 0.00 62 1016.7
20190818195318 32 157 1.6 3.2 0.00 0.00 0.00 61 1016.8
20190818194332 32 175 0.0 1.6 0.00 0.00 0.00 65 1017.1
20190818193323 31 175 1.6 1.6 0.00 0.00 0.00 68 1017.2
20190818192318 32 175 0.0 1.6 0.00 0.00 0.00 62 1017.3